This is the latest recevied weather packets stored in our database for station/object N1IJV-10. If no packets are shown the sender has not sent any weather packets the latest 1 day(s).
| Time | Temp. | Humidity | Pressure | Rain* | Wind** | Luminosity | Snow |
|---|---|---|---|---|---|---|---|
| 1778037511 | 9.44° C | 62% | 1009.5 hPa | 0 mm | 0 m/s | 0 W/m² | - |
| 1778037208 | 9.44° C | 63% | 1009.3 hPa | 0 mm | 0 m/s | 0 W/m² | - |
| 1778036905 | 9.44° C | 64% | 1009.3 hPa | 0 mm | 0 m/s | 0 W/m² | - |
| 1778036603 | 9.44° C | 62% | 1009.4 hPa | 0 mm | 0 m/s | 0 W/m² | - |
| 1778036300 | 9.44° C | 63% | 1009.3 hPa | 0 mm | 0 m/s | 0 W/m² | - |
| 1778035996 | 10° C | 65% | 1009.3 hPa | 0 mm | 0 m/s | 0 W/m² | - |
| 1778035693 | 10° C | 62% | 1009.3 hPa | 0 mm | 0 m/s | 0 W/m² | - |
| 1778035390 | 10° C | 62% | 1009.3 hPa | 0 mm | 0 m/s | 0 W/m² | - |
| 1778035086 | 10° C | 64% | 1009.2 hPa | 0 mm | 0 m/s | 0 W/m² | - |
| 1778034783 | 10° C | 63% | 1009.3 hPa | 0 mm | 0 m/s | 0 W/m² | - |
| 1778034480 | 10° C | 63% | 1009.7 hPa | 0 mm | 0 m/s | 0 W/m² | - |
| 1778034178 | 10° C | 61% | 1009.4 hPa | 0 mm | 0 m/s | 0 W/m² | - |
| 1778033876 | 10° C | 60% | 1009.2 hPa | 0 mm | 0 m/s | 0 W/m² | - |
| 1778033572 | 10° C | 60% | 1009 hPa | 0 mm | 0 m/s | 0 W/m² | - |
| 1778033269 | 10° C | 62% | 1009.1 hPa | 0 mm | 0 m/s | 0 W/m² | - |
| 1778032967 | 10° C | 63% | 1009 hPa | 0 mm | 0 m/s | 0 W/m² | - |
| 1778032664 | 10° C | 60% | 1009.1 hPa | 0 mm | 0 m/s | 0 W/m² | - |
| 1778032373 | 10° C | 62% | 1008.7 hPa | 0 mm | 0 m/s | 0 W/m² | - |
| 1778032058 | 10° C | 60% | 1008.4 hPa | 0 mm | 0 m/s | 0 W/m² | - |
| 1778031755 | 10.56° C | 60% | 1008.4 hPa | 0 mm | 0 m/s | 0 W/m² | - |
| 1778031452 | 10.56° C | 62% | 1008.6 hPa | 0 mm | 0 m/s | 0 W/m² | - |
| 1778031149 | 10.56° C | 58% | 1008.6 hPa | 0 mm | 0 m/s | 0 W/m² | - |
| 1778030845 | 10.56° C | 57% | 1008.6 hPa | 0 mm | 0 m/s | 0 W/m² | - |
| 1778030543 | 11.11° C | 58% | 1008.3 hPa | 0 mm | 0 m/s | 0 W/m² | - |
| 1778030240 | 11.11° C | 58% | 1008.2 hPa | 0 mm | 0 m/s | 0 W/m² | - |
* Rain latest hour (hover to see other rain measurements)
** Current wind speed in m/s (hover to see current wind gust speed)